Flag for Canada Weather past 2 weeks in Cranbrook, British Columbia, Canada

Now
54 °F

Partly cloudy.


Feels Like: 52 °F
Forecast: 50 / 69 °F
Wind: 6 mph from East

Location: Cranbrook

Current Time: Sep 19, 2014 at 8:00:24 AM

Latest Report: Sep 19, 2014 at 7:00 AM


Visibility: 20 mi

Pressure: 29.86 "Hg

Humidity: 77%

Dew point: 46 °F

Location of CranbrookLocation

Historic Weather in Cranbrook — Graph

°F

Cranbrook temperature yesterday

Maximum temperature yesterday: 68 °F (at 5:00 PM)
Minimum temperature yesterday: 50 °F (at 7:00 AM)
Average temperature yesterday: 57 °F

Past Weeks' High & Low Weather Summary

 TemperatureHumidityPressure
High81 °F (Sep 7, 6:00 PM)93% (Sep 4, 6:00 AM)30.64 "Hg (Sep 4, 6:00 AM)
Low27 °F (Sep 11, 4:00 AM)27% (Sep 14, 5:00 PM)29.66 "Hg (Sep 18, 6:00 AM)
Average53 °F63%30.08 "Hg
* Reported Sep 4 6:00 AM — Sep 19 6:00 AM, Cranbrook, Weather by CustomWeather, © 2014

Note: Actual official high and low records may vary slightly from our data, if they occured in-between our weather recording intervals... More about our weather records

Advertising

Cranbrook weather history for previous 24 hours

 ConditionsComfort  
Time TempWeatherWind HumidityBarometerVisibility
6:00 AM
Sep 19
55 °FScattered showers. Mostly cloudy.9 mph77%29.83 "Hg15 mi
5:00 AM55 °FScattered showers. Partly cloudy.5 mph77%29.82 "Hg20 mi
4:00 AM55 °FScattered showers. Partly cloudy.3 mph77%29.83 "Hg20 mi
3:00 AM55 °FPassing clouds.3 mph77%29.81 "Hg20 mi
2:00 AM55 °FPartly cloudy.2 mph77%29.80 "Hg20 mi
1:00 AM50 °FPartly cloudy.2 mph88%29.79 "Hg20 mi
12:00 AM54 °FPassing clouds.5 mph82%29.77 "Hg20 mi
11:00 PM
Sep 18
57 °FPassing clouds.3 mph72%29.75 "Hg20 mi
10:00 PM55 °FPartly cloudy.3 mph82%29.77 "Hg20 mi
9:00 PM59 °FPartly cloudy.No wind72%29.75 "Hg20 mi
8:00 PM61 °FPartly sunny.3 mph68%29.75 "Hg20 mi
7:00 PM63 °FPartly sunny.2 mph59%29.74 "Hg20 mi
6:00 PM66 °FBroken clouds.7 mph49%29.72 "Hg20 mi
5:00 PM68 °FPartly sunny.13 mph46%29.69 "Hg20 mi
4:00 PM64 °FPartly sunny.3 mph68%29.69 "Hg20 mi
3:00 PM61 °FMore clouds than sun.5 mph72%29.70 "Hg20 mi
2:00 PM59 °FPartly sunny.3 mph72%29.70 "Hg20 mi
1:00 PM59 °FMostly cloudy.2 mph72%29.70 "Hg20 mi
12:00 PM59 °FMostly cloudy.No wind68%29.70 "Hg20 mi
11:00 AM59 °FBroken clouds.3 mph63%29.70 "Hg20 mi
10:00 AM55 °FBroken clouds.2 mph72%29.70 "Hg20 mi
9:00 AM52 °FBroken clouds.5 mph82%29.70 "Hg20 mi
8:00 AM50 °FPassing clouds.2 mph82%29.68 "Hg20 mi
Weather by CustomWeather, © 2014

See weather overviewHow to use our weather pages